Location: Mohawk View
(42.7837°N, 73.7885°W)
Time: 12:43:23
(UTC+00:00)

MOZ.5/SAFIR/RUBIN 5/SL-8 - Pass Details

Date: 17 June 2021
Orbit: 677 x 706 km, 98.1° (Epoch: 30 July)

Event Time Altitude Azimuth Distance (km) Brightness Sun altitude
Exits shadow 06:13:16 48° 163° (SSE) 910 4.0 -21.5°
Maximum altitude 06:14:36 88° 74° (ENE) 705 3.7 -21.4°
Drops below altitude 10° 06:19:23 10° 348° (NNW) 2,177 7.1 -21.1°
Sets 06:21:39 0° 348° (NNW) 3,103 8.1 -21.0°
